TimeEDT,TemperatureF,Dew PointF,Humidity,Sea Level PressureIn,VisibilityMPH,Wind Direction,Wind SpeedMPH,Gust SpeedMPH,PrecipitationIn,Events,Conditions,WindDirDegrees,DateUTC
12:53 AM,82.0,75.9,82,30.02,9.0,West,4.6,-,N/A,,Partly Cloudy,260,2013-07-24 04:53:00
1:53 AM,82.0,75.9,82,30.00,10.0,WSW,4.6,-,N/A,,Clear,250,2013-07-24 05:53:00
2:53 AM,82.0,75.9,82,29.98,10.0,West,5.8,-,N/A,,Scattered Clouds,280,2013-07-24 06:53:00
3:53 AM,81.0,75.9,85,29.97,10.0,West,4.6,-,N/A,,Scattered Clouds,280,2013-07-24 07:53:00
4:44 AM,80.6,75.2,84,29.96,9.0,WNW,3.5,-,N/A,,Mostly Cloudy,300,2013-07-24 08:44:00
4:53 AM,81.0,75.0,82,29.96,9.0,WNW,3.5,-,N/A,,Scattered Clouds,300,2013-07-24 08:53:00
5:53 AM,80.1,75.0,85,29.97,10.0,Calm,Calm,-,N/A,,Clear,0,2013-07-24 09:53:00
6:53 AM,80.1,75.0,85,29.98,9.0,Calm,Calm,-,N/A,,Clear,0,2013-07-24 10:53:00
7:53 AM,82.0,75.9,82,29.98,8.0,WSW,4.6,-,N/A,,Scattered Clouds,240,2013-07-24 11:53:00
8:53 AM,84.0,75.9,76,30.00,9.0,West,9.2,-,N/A,,Scattered Clouds,280,2013-07-24 12:53:00
9:53 AM,86.0,75.9,72,30.01,9.0,WSW,8.1,-,N/A,,Scattered Clouds,240,2013-07-24 13:53:00
10:53 AM,86.0,75.9,72,30.02,9.0,West,12.7,-,N/A,,Partly Cloudy,270,2013-07-24 14:53:00
11:53 AM,86.0,75.9,72,30.01,9.0,West,12.7,-,N/A,,Partly Cloudy,260,2013-07-24 15:53:00
12:53 PM,87.1,75.9,69,30.02,10.0,West,11.5,-,N/A,,Scattered Clouds,280,2013-07-24 16:53:00
1:53 PM,87.1,75.0,67,30.01,10.0,West,13.8,-,N/A,,Partly Cloudy,270,2013-07-24 17:53:00
2:53 PM,87.1,75.0,67,29.99,9.0,WNW,15.0,19.6,N/A,,Scattered Clouds,290,2013-07-24 18:53:00
3:53 PM,87.1,75.0,67,29.97,9.0,West,11.5,-,N/A,,Scattered Clouds,280,2013-07-24 19:53:00
4:53 PM,87.1,75.0,67,29.96,9.0,West,13.8,-,N/A,,Scattered Clouds,270,2013-07-24 20:53:00
5:53 PM,87.1,75.9,69,29.95,9.0,West,11.5,-,N/A,,Partly Cloudy,270,2013-07-24 21:53:00
6:53 PM,84.9,73.9,69,29.95,9.0,West,10.4,-,N/A,,Partly Cloudy,280,2013-07-24 22:53:00
7:53 PM,84.0,73.0,69,29.96,9.0,West,9.2,-,N/A,,Partly Cloudy,270,2013-07-24 23:53:00
8:53 PM,82.9,73.0,72,29.97,10.0,West,9.2,-,N/A,,Mostly Cloudy,270,2013-07-25 00:53:00
9:53 PM,82.9,73.9,74,29.98,10.0,West,6.9,-,N/A,,Partly Cloudy,270,2013-07-25 01:53:00
10:53 PM,82.9,73.9,74,29.98,10.0,West,5.8,-,N/A,,Scattered Clouds,270,2013-07-25 02:53:00
11:53 PM,82.9,75.0,77,29.97,9.0,West,9.2,-,N/A,,Scattered Clouds,270,2013-07-25 03:53:00